Simultaneous Nadir Overpasses (SNOs) Predictions

Prediction of SNOs between LANDSAT-8 and NOAA-19 Satellite Orbit:

Table of predicted SNOs for the next 14.0 days since TLE Epoch: 10/1/2022
Index Date (LANDSAT-8) Time (LANDSAT-8) Lat,Lon (LANDSAT-8) SZA (LANDSAT-8 ) Date (NOAA-19) Time (NOAA-19) Lat,Lon (NOAA-19) SZA (NOAA-19 ) Distance(km) Time Diff (sec)
1 10/01/2022 08:46:23 -80.86, -95.21 93.92 10/01/2022 08:45:20 -80.87, -95.12 93.93 1.62 63
2 10/01/2022 09:35:49 80.87, 72.51 86.11 10/01/2022 09:36:21 80.86, 72.37 86.11 2.51 32
3 10/03/2022 15:09:33 -80.86, 168.94 93.04 10/03/2022 15:09:10 -80.87, 168.99 93.03 1.40 23
4 10/03/2022 15:58:59 80.86, -23.36 86.99 10/03/2022 16:00:11 80.86, -23.33 87.03 0.69 72
5 10/05/2022 20:43:15 80.87, -94.27 87.88 10/05/2022 20:42:03 80.87, -94.23 87.85 1.03 72
6 10/05/2022 21:32:42 -80.87, 73.35 92.12 10/05/2022 21:32:59 -80.86, 73.43 92.11 1.84 17
7 10/08/2022 03:06:24 80.88, 170.04 88.77 10/08/2022 03:05:53 80.87, 169.96 88.74 2.08 31
8 10/08/2022 03:55:52 -80.85, -22.67 91.28 10/08/2022 03:56:49 -80.86, -22.55 91.23 2.28 57
9 10/10/2022 09:29:34 80.85, 73.91 89.59 10/10/2022 09:29:43 80.87, 74.09 89.62 3.32 9
10 10/12/2022 15:03:16 -80.88, 170.79 89.52 10/12/2022 15:02:29 -80.87, 170.96 89.53 3.27 47
11 10/12/2022 15:52:43 80.85, -21.94 90.44 10/12/2022 15:53:33 80.87, -21.85 90.49 2.67 50



Historial Predications of SNOs between LANDSAT-8 and NOAA-19
